Location: Kumla
(59.1265°N, 15.1401°E)
Time: 07:03:45
(UTC+01:00)

Transit 4A - Pass Details

Date: 11 December 2023
Orbit: 870 x 973 km, 66.8° (Epoch: 02 March)

Event Time Altitude Azimuth Distance (km) Brightness Sun altitude
Rises 19:58:57 0° 226° (SW) 3,660 11.4 -35.7°
Reaches altitude 10° 20:01:31 10° 226° (SW) 2,710 10.6 -36.0°
Enters shadow 20:04:15 28° 226° (SW) 1,745 9.5 -36.3°
